| time (UTC) | temp F | wind direction | speed knots | gust knots | rain 1hr in | rain 24hr in | rain mn in | humidity % | barometer mb |
| 20260504234610 | 79 | 169 | 7.0 | 12.2 | 0.00 | 0.00 | 0.00 | 49 | 1002.9 |
| 20260504233106 | 80 | 203 | 5.2 | 14.8 | 0.00 | 0.00 | 0.00 | 49 | 1002.9 |
| 20260504231553 | 81 | 151 | 4.3 | 12.2 | 0.00 | 0.00 | 0.00 | 49 | 1002.8 |
| 20260504230055 | 81 | 208 | 6.1 | 12.2 | 0.00 | 0.00 | 0.00 | 47 | 1002.8 |
| 20260504224608 | 80 | 109 | 6.1 | 15.6 | 0.00 | 0.00 | 0.00 | 48 | 1003.0 |
| 20260504223051 | 81 | 139 | 7.8 | 20.0 | 0.00 | 0.00 | 0.00 | 45 | 1002.8 |
| 20260504221555 | 81 | 236 | 4.3 | 17.4 | 0.00 | 0.00 | 0.00 | 47 | 1002.9 |
| 20260504220058 | 80 | 184 | 10.4 | 20.0 | 0.00 | 0.00 | 0.00 | 47 | 1002.9 |
| 20260504214552 | 81 | 134 | 7.8 | 13.9 | 0.00 | 0.00 | 0.00 | 46 | 1003.0 |
| 20260504213124 | 81 | 207 | 7.8 | 17.4 | 0.00 | 0.00 | 0.00 | 46 | 1003.2 |
| 20260504211558 | 81 | 231 | 8.7 | 20.0 | 0.00 | 0.00 | 0.00 | 46 | 1003.1 |
| 20260504210053 | 81 | 200 | 7.8 | 20.9 | 0.00 | 0.00 | 0.00 | 47 | 1003.2 |
| 20260504204554 | 80 | 197 | 8.7 | 20.0 | 0.00 | 0.00 | 0.00 | 47 | 1003.4 |
| 20260504203112 | 80 | 157 | 9.6 | 17.4 | 0.00 | 0.00 | 0.00 | 48 | 1003.5 |
| 20260504201551 | 80 | 226 | 11.3 | 21.7 | 0.00 | 0.00 | 0.00 | 48 | 1003.7 |
| 20260504200053 | 80 | 194 | 10.4 | 21.7 | 0.00 | 0.00 | 0.00 | 47 | 1003.9 |
| 20260504194603 | 80 | 172 | 11.3 | 20.9 | 0.00 | 0.00 | 0.00 | 46 | 1004.1 |
| 20260504193100 | 80 | 205 | 9.6 | 21.7 | 0.00 | 0.00 | 0.00 | 48 | 1004.2 |
| 20260504191553 | 79 | 205 | 12.2 | 22.6 | 0.00 | 0.00 | 0.00 | 46 | 1004.3 |
| 20260504190114 | 79 | 214 | 13.0 | 20.9 | 0.00 | 0.00 | 0.00 | 48 | 1004.4 |
| 20260504184605 | 78 | 164 | 10.4 | 21.7 | 0.00 | 0.00 | 0.00 | 48 | 1004.4 |
| 20260504183056 | 78 | 201 | 7.8 | 16.5 | 0.00 | 0.00 | 0.00 | 48 | 1004.3 |
| 20260504181550 | 77 | 155 | 7.0 | 16.5 | 0.00 | 0.00 | 0.00 | 51 | 1004.4 |
| 20260504180057 | 76 | 200 | 7.8 | 15.6 | 0.00 | 0.00 | 0.00 | 51 | 1004.8 |
| 20260504174607 | 76 | 150 | 7.0 | 13.0 | 0.00 | 0.00 | 0.00 | 52 | 1005.0 |
| 20260504173057 | 74 | 236 | 4.3 | 18.2 | 0.00 | 0.00 | 0.00 | 51 | 1004.7 |
| 20260504171558 | 75 | 159 | 6.1 | 18.2 | 0.00 | 0.00 | 0.00 | 51 | 1004.7 |
| 20260504140107 | 68 | 233 | 7.0 | 17.4 | 0.00 | 0.00 | 0.00 | 56 | 1005.9 |
| 20260504110117 | 62 | 212 | 4.3 | 10.4 | 0.00 | 0.00 | 0.00 | 62 | 1006.5 |
| 20260504090120 | 62 | 101 | 0.9 | 1.7 | 0.00 | 0.00 | 0.00 | 63 | 1007.7 |
| 20260504081556 | 61 | 0 | 0.0 | 0.0 | 0.00 | 0.00 | 0.00 | 67 | 1008.1 |
| 20260504044600 | 65 | 125 | 1.7 | 3.5 | 0.00 | 0.00 | 0.00 | 57 | 1008.8 |
| 20260504043054 | 65 | 129 | 1.7 | 3.5 | 0.00 | 0.00 | 0.00 | 57 | 1008.9 |
| 20260504041554 | 66 | 117 | 1.7 | 2.6 | 0.00 | 0.00 | 0.00 | 56 | 1009.0 |
| 20260504040106 | 67 | 118 | 1.7 | 2.6 | 0.00 | 0.00 | 0.00 | 54 | 1009.2 |
| 20260504034603 | 68 | 136 | 2.6 | 5.2 | 0.00 | 0.00 | 0.00 | 52 | 1009.4 |
| 20260504033104 | 68 | 143 | 2.6 | 4.3 | 0.00 | 0.00 | 0.00 | 53 | 1009.5 |
| 20260504031553 | 68 | 146 | 3.5 | 7.0 | 0.00 | 0.00 | 0.00 | 52 | 1009.6 |
| 20260504030056 | 69 | 177 | 3.5 | 7.0 | 0.00 | 0.00 | 0.00 | 51 | 1009.8 |
| 20260504024605 | 69 | 160 | 3.5 | 7.8 | 0.00 | 0.00 | 0.00 | 51 | 1009.6 |
| 20260504023053 | 70 | 203 | 3.5 | 7.0 | 0.00 | 0.00 | 0.00 | 50 | 1009.6 |
| 20260504021551 | 70 | 162 | 3.5 | 6.1 | 0.00 | 0.00 | 0.00 | 48 | 1009.7 |
| 20260504020052 | 71 | 203 | 3.5 | 6.1 | 0.00 | 0.00 | 0.00 | 47 | 1009.5 |
| 20260504014554 | 71 | 218 | 3.5 | 10.4 | 0.00 | 0.00 | 0.00 | 46 | 1009.3 |
| 20260504013053 | 71 | 224 | 3.5 | 6.1 | 0.00 | 0.00 | 0.00 | 46 | 1009.4 |
| 20260504011552 | 72 | 210 | 1.7 | 6.1 | 0.00 | 0.00 | 0.00 | 45 | 1009.3 |
| 20260504010056 | 73 | 199 | 1.7 | 7.0 | 0.00 | 0.00 | 0.00 | 44 | 1009.2 |
| 20260504004550 | 75 | 228 | 4.3 | 8.7 | 0.00 | 0.00 | 0.00 | 42 | 1009.2 |
| 20260504003053 | 76 | 195 | 4.3 | 7.8 | 0.00 | 0.00 | 0.00 | 41 | 1009.2 |
| 20260504001611 | 77 | 219 | 5.2 | 9.6 | 0.00 | 0.00 | 0.00 | 40 | 1009.3 |
| 20260504000059 | 78 | 178 | 5.2 | 10.4 | 0.00 | 0.00 | 0.00 | 41 | 1009.3 |